Location: Chinna Viriv?da
(16.5281°N, 81.0493°E)
Time: 23:27:14
(UTC+00:00)

OAO 2 Rocket - Pass Details

Date: 14 April 2026
Orbit: 668 x 734 km, 35.0° (Epoch: 9 May)

Event Time Altitude Azimuth Distance (km) Brightness Sun altitude
Exits shadow 23:45:24 10° 273° (W) 2,053 5.1 -9.1°
Maximum altitude 23:49:21 26° 217° (SW) 1,301 4.3 -8.2°
Drops below altitude 10° 23:53:25 10° 161° (SSE) 2,098 5.9 -7.3°
Sets 23:56:08 0° 149° (SSE) 3,022 6.9 -6.6°
